Lapse_Rate
6.3 9.3 10.0 9.0 6.6 6.5 6.5 6.5 6.5 6.5 6.5 7.6 7.8 7.1 6.7 7.3 6.6 6.5 9.3 9.9 10.1 10.2 9.4 7.9 6.3 6.2 6.2 6.3 6.5 6.6 6.4 6.7 6.8 6.5 6.3 6.6 6.3 6.3 6.1 6.6 6.5 6.9 6.3 6.2 6.1 6.0 6.2 6.0 6.2
9.9 9.6 9.3 7.8 6.5 6.5 6.5 6.5 6.5 6.5 7.2 7.9 7.9 7.6 7.1 6.5 8.5 8.6 9.2 9.8 10.1 10.1 9.7 9.0 6.1 6.3 6.4 6.3 6.3 6.3 7.0 6.9 6.6 6.5 6.6 6.4 6.6 6.5 6.5 6.6 6.6 6.6 6.6 6.4 6.5 6.4 6.4 6.6 6.3
9.8 9.6 7.8 6.5 6.5 6.5 6.5 6.5 6.5 7.1 7.7 7.5 7.3 8.0 7.7 7.2 8.6 8.7 9.8 10.0 10.0 10.0 9.7 7.9 6.6 6.6 6.7 6.7 6.4 6.9 7.1 6.6 5.9 5.2 6.9 6.7 6.5 6.6 6.4 6.4 6.7 6.5 6.5 6.5 6.5 6.5 6.4 6.6 6.6
9.3 8.8 8.1 6.5 6.5 6.5 6.5 6.5 6.9 6.9 7.6 7.8 7.7 6.6 8.4 9.0 8.8 9.5 10.0 10.1 10.1 10.2 9.7 6.5 6.5 6.9 6.8 6.6 6.5 6.7 7.1 6.5 5.4 5.8 6.9 6.6 6.6 6.8 6.7 6.7 6.3 6.4 6.3 6.3 6.6 6.7 6.9 6.9 6.9
9.2 8.1 6.5 6.5 6.5 6.5 6.5 7.1 7.3 6.5 7.0 7.4 7.6 6.8 7.4 9.0 9.6 9.9 9.9 10.0 10.0 9.8 9.5 8.5 6.8 6.8 6.6 6.2 6.3 6.4 6.3 6.2 6.3 6.7 6.7 6.6 6.7 6.4 6.9 6.7 6.1 6.0 6.1 6.6 6.7 6.7 6.7 6.7 6.4
7.5 7.6 6.5 6.5 6.5 6.5 6.6 7.4 7.3 7.0 7.3 7.5 7.3 7.3 7.7 9.3 9.4 9.6 9.9 9.9 10.0 9.8 9.4 8.4 6.7 6.6 6.6 6.7 6.2 6.1 6.0 5.6 6.8 6.7 6.8 6.8 6.4 6.5 6.4 6.8 7.3 6.3 6.4 6.2 6.4 6.5 6.4 6.3 6.3
6.8 6.5 6.5 6.5 6.5 6.5 6.5 7.6 6.9 6.9 7.1 7.1 8.1 6.5 8.1 8.9 9.5 9.7 9.9 10.1 10.0 10.0 9.5 8.0 8.1 7.0 6.4 5.8 5.9 5.2 6.5 6.7 6.8 6.6 6.7 6.4 6.3 6.2 6.0 6.5 6.8 6.6 6.3 5.9 5.8 6.1 6.1 6.1 6.1
7.7 6.5 6.5 6.5 6.5 6.5 6.8 7.3 7.7 7.3 6.9 8.6 8.6 6.7 7.1 8.9 9.6 9.9 9.9 9.8 9.7 10.1 9.8 7.9 7.0 8.7 7.5 5.9 4.6 5.6 6.9 6.7 6.5 6.5 6.4 6.4 6.2 6.2 6.1 6.3 6.6 6.4 6.2 6.2 6.0 5.7 5.6 5.6 5.3
8.4 6.5 6.5 6.5 6.5 6.5 7.2 6.6 7.9 8.3 7.7 8.0 8.3 8.3 8.9 9.5 9.7 9.6 9.5 9.5 9.6 9.8 9.9 9.8 8.8 9.2 9.2 5.9 5.1 5.7 6.7 6.6 6.6 6.5 6.1 6.7 9.6 9.5 9.0 6.6 5.8 6.0 6.0 5.7 5.6 5.4 5.3 5.4 5.3
6.9 6.5 6.5 6.6 6.6 6.5 7.0 7.0 7.3 7.2 7.3 7.4 8.0 8.9 9.3 9.3 9.3 9.1 8.7 8.9 9.1 9.3 9.5 9.9 9.9 9.7 9.6 8.7 5.7 6.5 8.6 9.5 9.4 9.0 7.8 9.6 9.3 9.3 9.1 6.8 5.4 5.5 5.4 5.4 5.3 5.4 5.5 5.2 8.4
7.0 6.5 6.5 6.7 7.0 7.3 7.0 7.1 7.6 7.0 6.5 7.5 7.5 8.3 8.9 9.0 9.0 9.0 9.0 9.0 8.9 9.4 9.5 8.8 9.8 9.5 9.7 9.5 7.8 6.5 5.8 9.6 8.9 7.2 9.0 9.0 9.4 9.6 9.7 9.2 8.8 9.2 4.9 9.0 7.0 6.5 8.8 8.9 5.8
6.5 7.1 6.9 7.0 6.6 7.1 6.8 7.4 7.1 7.4 7.3 8.4 8.5 8.7 8.8 8.7 8.8 9.1 9.1 9.1 9.0 9.0 9.5 9.2 9.7 9.5 9.3 7.0 9.5 8.3 9.7 9.7 9.8 9.4 8.1 7.5 9.5 8.9 9.3 9.7 8.9 8.6 9.6 8.4 9.3 9.7 7.7 6.7 6.4
6.5 6.8 7.4 7.1 6.3 7.2 7.5 6.8 6.9 7.2 8.2 8.7 8.8 8.7 8.6 8.7 8.9 9.2 9.4 9.4 9.4 9.1 9.5 9.3 9.8 9.4 7.4 6.5 8.8 8.4 9.6 9.5 9.7 9.6 7.9 9.5 9.7 8.8 8.5 7.4 9.4 8.8 8.6 9.4 9.1 8.8 8.5 7.5 7.7
7.2 7.2 7.1 7.4 6.8 7.2 6.7 6.9 7.1 7.5 8.3 8.3 8.4 8.4 8.7 8.7 8.9 9.1 9.2 9.2 9.3 9.5 9.6 9.8 9.8 7.7 9.0 7.9 7.2 9.5 9.5 9.1 9.7 9.7 7.8 7.1 9.4 8.0 7.9 7.7 9.2 8.5 9.5 9.5 9.1 7.9 8.1 7.5 8.3
7.4 6.5 6.5 6.9 6.9 6.7 6.8 6.5 6.5 7.8 8.2 7.9 8.1 8.4 8.5 8.7 9.0 8.9 9.2 9.3 9.5 9.7 9.8 9.7 9.2 7.7 7.9 7.7 7.0 9.2 7.0 8.3 9.8 9.7 7.3 6.7 7.1 6.7 6.6 7.9 8.2 8.5 7.8 7.1 7.5 7.2 7.9 9.3 9.4
6.5 6.5 6.5 6.5 6.7 6.9 6.8 6.5 6.6 7.7 7.7 7.5 7.9 8.2 8.3 8.6 8.9 9.1 9.4 9.5 9.6 9.6 8.7 9.7 8.9 8.9 6.4 6.6 6.2 7.3 8.3 9.0 9.7 9.7 9.0 6.7 6.4 5.9 6.3 7.9 8.8 6.7 7.4 8.8 9.7 9.4 9.7 9.6 9.5
6.5 6.5 6.5 6.5 6.9 6.5 6.5 6.5 6.8 6.9 7.4 7.4 7.8 8.1 8.2 8.4 8.8 9.1 9.4 9.5 9.6 7.8 6.5 9.3 9.8 6.7 6.9 5.9 6.0 7.4 7.3 9.6 9.8 9.7 9.7 7.0 7.0 6.3 7.2 8.0 7.7 6.8 8.4 9.6 9.7 9.5 8.2 9.3 9.0
6.5 6.5 6.5 6.5 6.5 6.5 6.5 6.5 6.6 7.5 7.3 7.2 7.7 7.9 8.1 8.3 8.6 9.1 9.3 9.5 9.7 9.0 7.7 9.3 8.9 9.4 7.2 7.4 7.9 9.8 9.8 9.9 9.7 9.7 9.7 7.5 7.4 6.6 6.6 7.8 7.2 7.3 9.3 9.6 9.6 7.4 7.5 9.0 8.4
6.5 6.5 6.5 6.5 6.5 6.5 6.5 6.5 6.5 7.1 7.4 7.3 7.5 7.9 8.0 8.2 8.8 9.2 9.4 9.5 9.6 9.6 9.4 9.3 9.3 8.3 7.9 9.6 9.4 9.5 9.5 9.7 9.8 9.8 8.1 7.6 7.6 7.1 6.5 8.4 7.6 7.8 8.5 8.6 7.8 8.4 7.4 9.4 7.3
6.5 6.5 6.5 6.5 6.5 6.5 6.5 6.5 6.5 6.8 7.0 7.4 7.5 7.6 7.5 8.2 8.5 8.8 9.2 9.4 9.5 9.3 9.3 9.3 9.0 7.4 7.6 9.7 9.2 9.6 9.5 9.8 9.8 9.8 9.1 9.1 7.7 7.1 7.2 7.3 8.7 7.3 9.5 7.7 8.0 7.3 9.3 9.3 8.9
6.5 6.5 6.5 6.5 6.5 6.5 6.5 6.5 6.5 6.6 7.2 7.6 7.8 8.0 8.2 6.4 8.4 8.7 8.9 9.1 9.4 9.3 9.2 9.2 7.6 7.4 7.7 8.7 9.0 8.5 8.9 8.2 9.4 9.6 9.7 9.5 7.8 7.6 6.9 6.7 7.7 7.4 8.0 9.5 8.1 8.6 7.8 9.1 9.2
6.5 6.5 6.5 6.5 6.5 6.5 6.5 6.5 6.5 6.5 6.5 6.7 7.4 7.8 8.1 8.1 8.6 8.8 9.1 9.1 9.3 9.3 9.5 9.4 8.4 7.3 7.7 7.6 9.2 9.0 8.4 8.1 9.5 9.7 9.8 9.7 7.9 7.9 7.6 7.0 7.1 6.9 9.3 8.3 8.9 9.4 8.9 7.9 8.8
6.5 6.5 6.5 6.5 6.5 6.5 6.5 6.5 6.5 6.5 6.5 6.5 7.0 7.6 8.0 8.4 8.5 8.7 8.9 9.1 9.4 9.5 9.5 9.5 7.9 7.3 8.4 7.8 8.3 9.3 8.9 9.5 9.6 9.7 9.0 8.9 8.3 7.9 7.9 7.6 7.3 7.6 9.4 8.2 7.9 9.1 8.1 9.4 9.1
6.5 6.5 6.5 6.5 6.5 6.5 6.5 6.5 6.5 6.5 6.5 6.5 6.9 7.6 7.9 8.3 8.6 8.8 9.0 9.0 9.3 9.6 9.6 9.6 8.0 6.9 7.2 7.2 7.4 7.6 9.0 9.0 9.2 9.3 8.2 9.1 9.6 9.8 8.0 8.2 7.8 7.7 8.7 8.2 8.3 8.7 8.8 8.7 8.8
6.5 6.5 6.5 6.5 6.5 6.5 6.5 6.5 6.5 6.5 6.5 6.5 6.7 7.3 7.9 8.3 8.5 8.6 8.7 8.8 9.0 9.2 9.3 9.4 8.8 6.6 7.0 7.2 7.5 7.5 7.5 8.1 8.1 9.0 9.4 9.4 9.5 9.7 9.0 8.2 8.0 9.1 7.9 8.0 7.8 7.9 9.4 9.1 9.2
6.5 6.5 6.5 6.5 6.5 6.5 6.5 6.5 6.5 6.5 7.1 7.3 7.4 7.6 7.8 8.1 8.5 8.6 8.7 8.7 8.8 9.0 9.1 9.2 8.8 7.2 7.3 7.3 7.4 7.6 7.6 8.9 9.5 8.5 9.4 9.7 9.7 9.5 9.5 8.9 9.4 8.3 8.2 8.3 8.5 9.7 9.8 9.1 9.2
6.5 6.5 6.5 6.5 6.5 6.5 6.5 6.5 6.5 6.5 6.5 6.9 7.2 7.4 7.6 8.0 8.3 8.5 8.8 9.0 8.9 8.9 9.0 9.1 9.0 8.2 8.7 8.8 7.5 7.5 7.6 7.8 9.4 9.4 9.1 9.7 9.5 9.8 8.6 9.0 8.6 8.8 8.9 9.0 9.6 9.8 9.5 9.0 8.9
6.5 6.5 6.5 6.5 6.5 6.5 6.5 6.5 6.5 6.5 6.5 6.5 6.7 7.2 7.6 8.0 8.2 8.5 8.7 8.8 9.0 9.1 9.2 9.2 9.1 8.3 8.7 9.3 9.2 8.8 8.9 8.1 8.2 9.0 8.2 9.3 9.0 9.4 9.3 8.6 8.4 8.9 8.8 9.4 9.5 9.2 9.5 9.4 9.4
6.5 6.5 6.5 6.5 6.5 6.5 6.5 6.5 6.5 6.5 6.5 6.5 6.8 7.3 7.6 7.9 8.1 8.4 8.6 8.8 9.0 9.1 8.9 8.7 8.9 9.2 9.2 9.2 9.3 9.2 9.3 9.4 9.1 9.5 9.2 9.1 9.3 8.3 9.3 8.4 8.1 8.8 9.5 9.4 9.0 9.1 9.5 9.3 9.4
6.5 6.5 6.5 6.5 6.5 6.5 6.5 6.5 6.5 6.5 6.6 6.9 7.1 7.4 7.9 8.1 8.3 8.4 8.6 8.8 8.9 8.8 8.7 6.7 8.4 9.1 9.3 9.3 9.2 9.2 9.1 9.2 9.5 9.4 9.5 9.1 8.8 8.9 8.2 8.3 8.0 8.2 8.7 8.5 8.2 9.4 9.5 9.4 9.3
Wind_Speed
10 8 3 4 5 6 5 6 6 7 4 4 3 3 7 9 8 4 5 7 11 13 16 15 13 11 8 9 9 10 9 8 10 10 9 9 10 12 10 10 9 11 12 13 13 14 13 13 12
4 3 4 2 6 5 5 6 8 7 6 7 8 4 4 7 11 12 9 10 14 13 16 16 13 10 9 10 10 10 11 8 7 8 10 10 11 11 13 12 13 12 13 13 13 14 12 12 11
5 4 4 2 2 5 5 5 8 11 5 3 4 3 3 4 6 4 13 12 13 10 10 16 13 11 10 11 11 12 13 15 14 9 8 12 14 14 14 14 14 14 13 12 13 13 12 11 11
4 4 4 5 4 7 9 12 11 8 7 3 5 7 8 8 3 7 12 11 12 13 14 15 14 13 13 15 14 13 12 16 14 7 12 14 14 15 15 14 13 12 12 12 11 12 11 11 10
3 3 4 4 6 8 12 11 6 6 4 7 1 6 6 6 9 13 12 10 10 11 14 15 15 16 16 15 14 13 13 10 12 11 14 16 15 15 14 14 14 13 12 11 11 10 10 9 9
4 3 6 5 9 10 10 7 6 7 6 6 7 9 7 8 11 10 9 8 9 13 13 17 18 19 18 17 13 12 14 4 10 13 15 15 15 14 12 13 14 13 11 11 11 10 10 10 9
5 5 5 5 11 11 7 3 5 7 6 7 6 6 7 9 10 9 9 9 8 11 14 14 17 19 19 16 13 4 12 12 12 13 14 14 13 12 10 11 11 10 10 10 10 10 10 10 11
1 3 4 4 10 6 3 3 6 8 9 8 3 6 11 12 8 8 8 9 9 11 10 14 14 18 17 15 10 1 8 11 11 12 12 12 12 11 9 11 8 8 8 9 9 11 12 14 13
2 4 4 3 6 7 3 5 7 5 8 3 5 5 14 14 9 8 7 8 7 8 11 15 16 16 18 17 10 2 8 11 12 11 8 11 10 10 10 10 5 6 6 9 10 13 14 12 9
4 3 4 5 4 4 4 3 6 5 4 8 12 14 15 12 10 8 9 9 10 11 11 13 13 14 19 19 15 14 8 9 8 7 7 7 6 5 7 6 6 5 6 8 9 9 10 15 12
3 3 10 6 4 3 5 9 2 4 7 9 12 13 12 10 9 7 8 9 10 12 9 10 10 13 11 11 12 7 7 11 10 7 7 6 6 6 6 8 9 7 8 9 9 10 12 8 10
3 9 4 5 4 4 6 2 6 9 7 11 13 13 10 8 7 9 8 8 11 11 13 12 12 9 12 5 7 6 8 6 8 8 5 6 6 5 2 3 3 2 2 3 1 3 4 4 1
7 10 10 6 5 4 2 3 4 7 9 14 13 11 10 7 8 8 8 9 10 11 10 11 10 9 7 6 4 8 7 7 9 7 5 5 5 3 2 2 1 2 2 3 2 3 2 1 2
5 11 12 8 5 6 1 5 3 9 10 13 12 10 9 7 7 8 8 9 9 9 10 10 11 7 8 5 3 5 4 7 4 6 7 5 3 2 3 2 1 1 3 3 1 3 2 3 1
11 12 13 9 5 4 2 6 3 11 11 12 11 9 8 7 7 7 9 9 9 8 10 10 8 8 6 5 3 3 4 3 3 6 6 5 3 3 0 1 1 3 4 2 2 1 1 1 0
6 4 3 8 7 3 3 3 6 7 9 12 11 9 8 8 8 7 9 9 10 8 8 9 11 10 6 4 3 3 5 3 3 4 7 7 3 2 3 1 1 3 2 1 1 1 1 2 1
4 5 3 6 11 6 9 5 8 7 8 11 11 10 8 8 7 8 9 9 11 12 8 10 8 10 8 4 4 6 5 4 3 4 5 7 3 3 1 1 2 1 1 1 2 2 3 3 1
6 6 3 3 8 9 9 4 9 11 10 8 11 11 10 9 10 9 10 10 11 13 11 8 8 8 5 4 4 4 4 4 4 3 4 6 5 4 3 4 3 3 1 1 1 2 3 3 3
4 4 5 4 3 7 7 6 12 11 13 13 10 12 11 11 10 11 11 11 12 12 12 11 9 8 6 5 5 4 5 4 3 4 4 5 4 4 3 3 4 3 3 2 1 1 1 0 1
7 6 6 3 1 6 4 7 8 13 13 14 13 12 11 13 12 12 11 13 13 14 13 12 10 9 7 6 4 2 2 3 2 4 4 4 4 3 3 3 2 1 2 2 2 1 1 1 0
8 6 4 3 5 7 7 6 7 11 14 14 14 14 14 13 15 15 15 14 15 15 15 14 13 11 9 7 5 4 3 1 4 5 5 5 4 4 2 4 4 3 3 3 3 2 2 1 1
8 5 2 6 8 2 2 2 5 7 11 16 15 15 16 18 16 15 17 16 16 15 14 14 14 13 11 9 7 6 4 4 5 4 3 5 5 4 4 3 5 4 2 1 3 3 2 4 4
4 4 3 8 7 4 8 5 8 2 4 11 14 16 16 17 18 16 16 16 16 15 14 14 14 13 12 11 9 7 8 7 6 4 7 3 4 6 5 5 5 4 4 3 2 1 2 1 2
3 4 5 6 7 10 9 6 7 4 1 2 3 13 17 17 17 18 14 13 16 16 15 14 15 13 13 12 12 11 8 6 4 5 3 5 6 6 6 6 4 4 3 2 0 1 2 3 3
12 11 7 7 9 7 6 4 7 3 4 3 1 3 10 16 16 16 16 15 16 17 17 15 15 15 15 14 13 13 11 9 7 6 8 7 5 4 7 6 5 5 4 2 2 3 3 1 1
12 13 9 4 8 7 7 5 3 1 4 3 2 3 2 10 14 16 17 15 17 17 17 17 17 15 16 15 14 12 11 7 8 9 8 7 4 7 5 7 6 6 6 5 3 4 5 3 2
8 10 9 9 9 8 10 4 8 8 7 5 4 3 4 6 10 16 17 17 17 17 18 18 17 16 16 16 13 13 11 10 8 6 6 6 4 5 7 6 7 5 6 6 4 4 4 1 2
9 4 7 9 7 9 5 5 7 6 8 6 6 5 4 3 5 10 13 17 17 17 16 18 18 17 17 15 14 12 12 12 9 8 8 6 3 6 5 8 6 6 7 6 6 5 6 4 5
7 10 9 10 5 10 9 4 3 5 3 6 3 3 2 4 5 5 8 13 16 16 12 17 16 17 16 15 14 13 12 13 11 9 8 8 6 6 7 6 4 6 5 5 6 5 3 5 4
6 8 8 8 9 8 8 10 3 5 2 1 2 3 4 6 7 7 8 9 14 16 14 13 13 14 15 15 14 13 12 12 11 10 9 9 9 7 7 7 8 8 5 4 6 6 3 4 6
Wind_Direction
181 189 200 218 242 241 115 97 98 112 114 65 93 11 56 31 13 50 119 128 139 139 132 148 135 132 128 130 121 122 118 132 139 134 138 123 115 108 112 104 111 111 110 104 104 100 98 100 99
164 177 226 258 258 150 130 110 80 63 81 104 105 144 73 76 60 117 130 133 150 140 141 136 138 135 122 125 127 115 110 110 115 136 136 124 112 108 112 111 101 105 98 102 99 94 97 97 96
202 236 263 250 265 53 126 91 128 110 92 131 110 9 35 57 99 93 109 132 139 138 118 118 134 134 117 126 104 108 105 101 82 56 112 108 105 109 112 110 110 109 107 104 103 105 102 101 97
203 196 223 251 125 78 100 111 118 122 105 67 106 91 97 56 89 113 133 136 135 141 125 129 136 128 115 105 105 113 110 119 116 182 128 112 114 108 105 107 108 108 109 108 113 106 108 105 101
232 249 245 224 105 108 110 109 107 82 87 111 151 114 95 85 110 126 133 157 138 125 107 129 130 121 114 105 98 98 94 99 141 149 122 120 111 106 105 115 114 112 112 120 115 113 113 114 114
225 275 239 202 116 115 111 116 73 81 91 103 121 110 93 118 138 129 137 138 133 115 116 123 125 119 113 105 83 91 103 119 154 136 126 115 112 108 109 106 108 112 121 122 123 130 133 134 125
291 266 247 188 136 120 111 120 55 84 92 92 114 102 115 138 128 139 135 129 123 117 116 126 127 123 110 98 91 95 152 158 135 130 118 119 117 114 114 107 111 119 123 121 131 142 149 142 136
253 285 195 165 165 108 69 99 97 55 77 109 17 134 155 132 149 139 148 143 138 135 132 127 140 135 122 107 83 287 145 133 132 125 118 130 121 128 134 135 114 128 128 131 146 161 163 157 158
230 236 164 102 140 111 125 140 74 86 123 83 64 65 107 135 145 131 157 125 153 153 143 134 137 142 130 128 154 232 151 131 134 131 146 182 137 145 155 79 144 146 145 153 166 163 162 159 150
320 307 67 53 88 63 127 126 82 133 141 113 109 108 123 138 142 141 149 152 147 154 161 123 143 147 147 140 168 193 171 160 132 130 143 148 127 107 86 118 160 165 179 185 176 170 168 201 155
27 43 126 78 82 353 121 83 64 158 101 122 131 133 139 142 137 131 134 148 142 148 128 138 140 138 143 133 154 162 214 147 136 137 174 127 153 152 139 139 155 159 183 188 182 172 212 36 15
120 114 108 111 42 7 76 65 123 54 71 115 127 135 144 139 139 125 131 143 142 154 149 147 136 142 138 149 160 148 143 138 140 113 156 154 182 133 142 100 111 192 82 99 123 116 85 93 78
94 128 116 118 79 324 39 115 101 94 113 120 130 142 146 147 121 115 122 133 143 144 147 143 142 144 155 163 177 166 137 159 121 134 112 129 127 122 155 112 345 21 26 132 141 104 68 105 23
120 122 127 139 77 336 325 177 72 139 139 135 145 147 144 143 132 126 130 137 153 153 147 147 152 154 164 148 164 134 158 122 127 119 113 142 155 129 128 157 73 22 6 49 69 58 18 342 4
131 123 132 152 164 176 168 214 190 151 156 156 156 152 147 150 145 147 137 143 149 173 153 142 158 170 169 159 173 171 134 149 152 125 141 123 167 140 115 104 347 12 23 281 176 200 97 325 316
125 168 158 157 168 130 224 303 149 160 167 167 163 161 160 159 169 152 146 145 145 140 149 175 157 166 177 166 200 242 167 229 146 140 144 150 122 134 181 162 81 12 2 329 57 358 6 28 348
217 93 96 154 200 153 212 132 154 182 208 197 177 166 170 163 176 157 153 155 149 124 168 188 166 160 182 186 239 231 192 204 161 148 138 156 152 127 239 214 105 313 27 16 321 61 352 47 20
104 92 96 57 175 208 203 180 168 185 178 209 200 183 187 179 174 169 163 156 153 153 172 175 190 167 178 213 215 230 192 203 173 164 136 163 139 186 249 230 247 267 251 189 32 31 35 8 11
2 21 25 55 132 218 245 254 171 192 191 206 230 196 205 194 163 169 175 169 165 166 173 183 186 178 203 201 203 197 205 187 187 169 143 151 160 180 205 242 195 244 246 0 214 143 137 126 52
288 297 78 109 166 229 272 261 219 186 211 218 208 220 204 236 186 178 188 179 187 180 183 188 199 192 204 203 214 296 262 193 173 169 159 173 172 190 220 248 201 145 173 203 195 183 168 1 73
250 300 329 329 154 231 288 233 201 202 204 218 223 220 212 215 199 191 191 195 191 193 190 190 193 196 205 222 206 216 234 227 202 182 190 175 181 204 218 220 262 179 252 163 177 148 278 91 118
262 28 281 165 209 80 261 102 123 165 204 210 214 218 219 195 223 208 196 195 197 196 195 193 195 195 200 203 218 238 299 265 204 214 160 166 195 201 184 179 190 214 176 134 138 132 327 293 65
316 309 200 184 233 233 171 265 114 214 208 202 212 212 217 213 212 212 214 195 200 193 191 192 192 198 206 199 226 212 223 197 215 185 154 181 184 211 195 186 177 180 202 134 83 120 312 233 351
151 170 179 201 265 252 128 262 163 131 33 88 187 202 211 221 213 215 208 224 196 193 194 186 189 197 196 200 204 218 231 234 250 218 158 185 211 190 200 187 175 164 166 153 96 283 225 343 342
213 208 234 216 207 238 129 220 299 126 178 272 284 185 221 210 219 217 220 203 220 200 193 191 189 194 197 199 202 208 221 234 222 230 217 196 174 222 178 199 194 185 188 193 222 231 280 280 213
214 263 280 276 279 278 125 239 231 98 146 172 262 266 204 221 212 220 217 212 221 211 198 199 190 195 194 199 205 207 211 215 216 212 280 222 209 190 156 204 202 199 199 204 204 224 258 104 246
193 236 286 294 240 258 269 155 251 196 207 179 181 202 210 203 222 223 225 215 207 208 201 202 200 199 198 200 199 206 208 220 230 242 209 223 241 201 197 210 215 207 223 223 193 224 230 167 255
270 348 221 213 274 270 225 229 279 185 211 206 197 208 204 232 242 235 227 227 208 207 204 206 203 198 201 205 199 203 207 210 216 230 230 243 286 271 213 213 217 215 232 241 222 211 214 220 243
183 229 230 294 309 298 283 262 85 301 175 189 226 249 268 284 276 252 238 226 218 216 204 205 212 205 202 201 204 206 207 207 209 221 218 226 227 229 248 243 237 227 217 219 222 248 269 211 249
275 293 283 253 246 234 299 291 68 109 159 181 250 250 289 304 302 281 248 220 213 214 196 207 206 211 212 202 201 205 206 204 207 215 220 206 225 224 227 234 238 247 247 217 211 235 284 226 242